Location: Unspecified
(0.0000°N, 0.0000°E)
Time: 11:37:43
(UTC+00:00)

S80/T - Pass Details

Date: 16 June 2023
Orbit: 1308 x 1320 km, 66.1° (Epoch: 22 September)

Event Time Altitude Azimuth Distance (km) Brightness Sun altitude
Rises 20:08:15 0° 3° (N) 4,300 ? -29.0°
Reaches altitude 10° 20:11:36 10° 15° (NNE) 3,333 ? -29.7°
Enters shadow 20:15:52 24° 44° (NE) 2,440 ? -30.7°
